FENGYUN 1C DEB, 31319

Orbit data source: Space-Track

FENGYUN 1C DEB, 31319 is space debris in SSO originally from a launch on Mon, 10 May 1999 UTC launched from the Taiyaun Space Center, China (TSC). Fengyun 1C debris stems from the Chinese weather satellite Fengyun-1C, which was intentionally destroyed by a Chinese anti-satellite missile in 2007. This event dramatically increased the amount of space debris, with thousands of trackable fragments posing hazards to satellites and human spaceflight. The Fengyun 1C debris cloud has become a focal point in discussions about space sustainability and the need for international regulations to prevent the creation of new debris.

Loading next visibility...
Identifier
31319, 1999-025BPX
Orbit
SSO
Country
Flag of CNCN / PRC
Related business
Manufacturer
Unknown
Mission
Spacecraft
Bus & Motor
Unknown
Mass
Unknown
Launch date (UTC)
1999-05-10 (27 years ago)
Launch vehicle
Unknown
Launch site
Taiyaun Space Center, China (TSC)
Object type
Payload
Rocket body
Debris
Shape & HBR
Unknown shape, 0.1 m
Radar Cross Section
Small (<0.1 m²)

Expand to show TLE details & history
Last TLE update: 10 hours ago

TLE from 10 hours ago
0 FENGYUN 1C DEB
1 31319U 99025BPX 26072.95986206  .00000078  00000-0  11008-3 0  9992
2 31319  98.8244 330.1478 0169107 203.3392 223.1950 13.75866092949423
Epoch: 2026-03-13T23:02Z
TLE epoch observation values (Epoch: 2026-03-13T23:02:12.081Z)
Latitude
63.88473°
Longitude
154.64522°
Altitude
1,081.22 km
Speed
7.272 km/s
True Right ascension
20h 47m 08s
True Declination
63° 45' 16"
Sunlit
Object was in daylight at epoch
Visualization orbit readout
Latitude
Unknown
Longitude
Unknown
Altitude
Unknown
Speed
Unknown
Apparent Right ascension
Unknown
Apparent Declination
Unknown
Sunlit
N/A
Visualization observer readout
Local Sidereal Time
13:06:59
Azimuth
Unknown
Elevation
Unknown
Doppler factor
Unknown
Orbital elements
Apogee altitude
1,100.168 km
Perigee altitude
851.448 km
Semi-major axis
7,353.945 km
Eccentricity
0.01691
Inclination
98.8244°
RAAN
330.1478°
Arg. of periapsis
203.3392°
True anomaly
221.88885°
Mean anomaly
223.195°
Eccentric anomaly
222.53992°
Mean motion
3.44162 °/min
Orbital period
104.6 mins
BSTAR
0.00011008
Loading maneuver chart data...
Computing Atmospheric mass density...
Loading historical data...
Loading historical data...
Loading historical data...
Loading historical data...
Loading historical data...
Loading historical data...
Loading historical data...

Documentation

Showing up to 5 results
|